Regional Weather Roundup
Issued by NWS

Home | Current Version | Previous Version | Graphics & Text | Print | Product List | Glossary On
Versions: 1 2 3 4 5 6 7 8 9 10 11 12 13 14 15 16 17 18 19 20 21 22 23 24 25 26 27 28 29 30 31 32 33 34 35 36 37 38 39 40 41 42 43 44 45 46 47 48 49 50
876
ASUS43 KLOT 191608
RWRIL

ILLINOIS REGIONAL WEATHER ROUNDUP
NATIONAL WEATHER SERVICE CHICAGO/ROMEOVILLE IL
1100 AM CDT THU APR 19 2018

NOTE: "FAIR" INDICATES FEW OR NO CLOUDS BELOW 12,000 FEET WITH NO
SIGNIFICANT WEATHER AND/OR OBSTRUCTIONS TO VISIBILITY.

* THESE STATIONS ARE NOT UNDER NWS QUALITY CONTROL. THEY ALSO MAY NOT
  REPORT WEATHER SUCH AS PRECIPITATION OR FOG.

ILZ001-002-007-009-015-016-024-191700-
NORTHWEST ILLINOIS

CITY           SKY/WX    TMP DP  RH WIND       PRES   REMARKS
MOLINE         FAIR      45  30  55 N8        30.41R
STERLING*      FAIR      42  31  64 N10       30.40R
SAVANNA*       FAIR      43  28  54 N6        30.40R
$$

ILZ003-004-008-010-011-017-018-191700-
NORTH CENTRAL ILLINOIS

CITY           SKY/WX    TMP DP  RH WIND       PRES   REMARKS
ROCKFORD       FAIR      43  26  51 NW8       30.38R
FREEPORT*      FAIR      37  28  69 N6        30.40R WCI  33
ROCHELLE*      FAIR      39  30  71 N9        30.37R WCI  33
DE KALB*       FAIR      38  30  71 N9        30.35R WCI  32
PERU*          FAIR      45  33  63 N10G17    30.37R
$$

ILZ005-006-012>014-019>023-191700-
NORTHEAST ILLINOIS

CITY           SKY/WX    TMP DP  RH WIND       PRES   REMARKS
CHICAGO-OHARE  FAIR      45  27  49 N13       30.32R
CHICAGO-MIDWAY FAIR      46  27  47 N12       30.32R
AURORA         FAIR      41  33  73 N12       30.34R
LANSING*       FAIR      42  33  69 N10G18    30.32R
JOLIET*        FAIR      44  32  63 N6        30.34R
WAUKEGAN       FAIR      41  28  60 N9        30.32R
DUPAGE AIRPORT FAIR      43  31  62 N10       30.33R
KANKAKEE*      FAIR      45  33  63 N14       30.33R
WHEELING       FAIR      45  29  53 N10       30.34R
MORRIS*        FAIR      41  34  76 N8        30.34R
ROMEOVILLE*    FAIR      43  33  67 N10       30.33R
NORTHERLY ISL    N/A     42  31  65 N13         N/A
$$

LMZ740>746-191700-
SOUTHERN LAKE MICHIGAN

STATION/POSITION SKY/WX   TEMP    WIND        PRES    VSBY  WAVE
                          AIR SEA DIR/SP/G                  HT/PER
                          (F)     (DEG/KT/KT) (MB)    (MI)  (FT/S)
HARRISON CRIB              38     340/ 16/ 18   N/A
BURNHAM HARBOR             42     350/ 10/ 15   N/A
CALUMET HARBOR             39     330/ 15/ 21 1026.3R
BURNS HARBOR               38     350/ 15/ 20 1026.4R
MICHIGAN CITY              38     330/ 21/ 24   N/A
$$

ILZ025>027-034>036-040-047-049-050-058-095>099-191700-
WEST-CENTRAL ILLINOIS

CITY           SKY/WX    TMP DP  RH WIND       PRES   REMARKS
QUINCY         MOSUNNY   46  31  55 N8        30.40R
GALESBURG*     FAIR      48  35  59 N7        30.40R
MACOMB*        SUNNY     45  30  55 NE7       30.42R
JACKSONVILLE*  MOSUNNY   44  32  61 N9        30.38R
PITTSFIELD*    CLOUDY    45  32  61 NE6       30.40R
$$

ILZ028>032-037-038-041>044-048-051>054-059>061-191700-
CENTRAL ILLINOIS

CITY           SKY/WX    TMP DP  RH WIND       PRES   REMARKS
PONTIAC        FAIR      46  35  65 NW13G18   30.35R
BLOOMINGTON    FAIR      45  33  63 N14G20    30.35R
DECATUR        FAIR      45  31  58 N15       30.34S
PEORIA         FAIR      47  32  56 VRB5      30.37R
LACON*         FAIR      43  30  60 N7        30.37R
LINCOLN*       FAIR      46  34  62 N6        30.36R
SPRINGFIELD    FAIR      47  33  58 N8        30.37R
TAYLORVILLE    PTSUNNY   44  32  63 N13       30.36R
$$

ILZ033-039-045-046-055>057-062-063-191700-
EAST-CENTRAL ILLINOIS

CITY           SKY/WX    TMP DP  RH WIND       PRES   REMARKS
CHAMPAIGN      FAIR      46  33  60 N15       30.32R
DANVILLE*      FAIR      44  33  64 N12       30.28R
RANTOUL*       FAIR      46  36  66 N10G17    30.33R
MATTOON        PTSUNNY   45  33  63 N12       30.32R
PARIS*         PTSUNNY   44  34  67 N9        30.32R
$$

ILZ079-100>102-191700-
SOUTHWEST ILLINOIS

CITY           SKY/WX    TMP DP  RH WIND       PRES   REMARKS
ALTON          CLOUDY    43  32  65 N7        30.39R
CAHOKIA*       CLOUDY    43  31  62 N9        30.39R
SPARTA*        CLOUDY    41  33  72 N10       30.38R
$$

ILZ064>066-069>071-074>076-080>082-084>086-088>090-092>094-191700-
SOUTH-CENTRAL ILLINOIS

CITY           SKY/WX    TMP DP  RH WIND       PRES   REMARKS
CARBONDALE     CLOUDY    43  30  60 N15       30.36R
CAIRO*         CLOUDY    43  27  54 N13G23    30.35R
EFFINGHAM*     CLOUDY    43  33  68 NW14G21   30.36R
MARION         PTSUNNY   41  28  60 N9G16     30.36R
MT. VERNON     CLOUDY    41  31  67 N8        30.36R
CENTRALIA*     CLOUDY    42  33  72 N15       30.35R
SALEM*         CLOUDY    43  32  65 N10       30.35R
METROPOLIS*    CLOUDY    43  28  54 N8G16     30.35R
$$

ILZ067-068-072-073-078-083-087-091-191700-
SOUTHEAST ILLINOIS

CITY           SKY/WX    TMP DP  RH WIND       PRES   REMARKS
LAWRENCEVILLE  CLOUDY    44  33  65 N17       30.32R
FLORA*         CLOUDY    44  33  64 N12       30.34R
FAIRFIELD*     CLOUDY    41  32  70 NW7       30.33R
HARRISBURG*    CLOUDY    43  32  65 N9        30.35R
ROBINSON*      CLOUDY    42  33  69 N14       30.32R
CARMI*         CLOUDY    41  32  70 NW10G18   30.34R
$$

ABBREVIATIONS USED IN REMARKS
   TC - TEMPERATURE IN CELSIUS
  WCI - WIND CHILL INDEX
   HX - HEAT INDEX
  VSB - VISIBILITY
$$





USA.gov is the U.S. government's official web portal to all federal, state and local government web resources and services.